Time,TemperatureF,DewpointF,PressureIn,WindDirection,WindDirectionDegrees,WindSpeedMPH,WindSpeedGustMPH,Humidity,HourlyPrecipIn,Conditions,Clouds,dailyrainin,SoftwareType,DateUTC
2013-05-23 00:04:00,47.2,42.9,29.63,SE,135,0.4,0.4,85,0.00,,,0.00,WUHU216HW,2013-05-23 07:04:00,
2013-05-23 00:09:00,47.2,42.9,29.63,SE,135,0.4,0.4,85,0.00,,,0.00,WUHU216HW,2013-05-23 07:09:00,
2013-05-23 00:29:00,47.2,42.9,29.63,SSW,203,1.1,1.1,85,0.00,,,0.00,WUHU216HW,2013-05-23 07:29:00,
2013-05-23 00:34:00,47.2,42.9,29.63,SW,225,0.7,1.1,85,0.00,,,0.00,WUHU216HW,2013-05-23 07:34:00,
2013-05-23 00:40:00,47.2,42.9,29.63,SW,225,0.7,1.1,85,0.00,,,0.00,WUHU216HW,2013-05-23 07:40:00,
2013-05-23 00:59:00,47.2,42.9,29.63,SSE,158,2.5,2.5,85,0.00,,,0.00,WUHU216HW,2013-05-23 07:59:00,
2013-05-23 01:04:00,47.2,42.9,29.63,NW,315,2.0,2.5,85,0.00,,,0.00,WUHU216HW,2013-05-23 08:04:00,
2013-05-23 01:09:00,47.2,42.9,29.63,NW,315,2.0,2.0,85,0.00,,,0.00,WUHU216HW,2013-05-23 08:09:00,
2013-05-23 01:29:00,47.0,43.0,29.63,West,270,3.1,3.1,86,0.00,,,0.00,WUHU216HW,2013-05-23 08:29:00,
2013-05-23 01:34:00,47.0,43.0,29.63,South,180,2.2,3.1,86,0.00,,,0.00,WUHU216HW,2013-05-23 08:34:00,
2013-05-23 01:39:00,47.0,43.0,29.63,South,180,2.2,3.1,86,0.00,,,0.00,WUHU216HW,2013-05-23 08:39:00,
2013-05-23 01:59:00,46.8,42.8,29.63,SW,225,0.7,0.7,86,0.00,,,0.00,WUHU216HW,2013-05-23 08:59:00,
2013-05-23 02:04:00,46.8,42.8,29.63,SW,225,0.7,0.7,86,0.00,,,0.00,WUHU216HW,2013-05-23 09:04:00,
2013-05-23 02:09:00,46.8,42.8,29.63,SW,225,0.7,0.7,86,0.00,,,0.00,WUHU216HW,2013-05-23 09:09:00,
2013-05-23 02:29:00,47.0,42.8,29.63,SE,135,1.6,1.6,85,0.01,,,0.00,WUHU216HW,2013-05-23 09:29:00,
2013-05-23 02:34:00,47.0,42.8,29.63,SE,135,3.4,3.4,85,0.01,,,0.02,WUHU216HW,2013-05-23 09:34:00,
2013-05-23 02:39:00,47.0,42.8,29.63,SE,135,3.4,3.4,85,0.01,,,0.02,WUHU216HW,2013-05-23 09:39:00,
2013-05-23 02:59:00,47.0,43.0,29.63,SSE,158,1.1,1.1,86,0.01,,,0.02,WUHU216HW,2013-05-23 09:59:00,
2013-05-23 03:04:00,47.0,43.0,29.63,SSE,158,1.6,1.6,86,0.00,,,0.02,WUHU216HW,2013-05-23 10:04:00,
2013-05-23 03:09:00,47.0,43.0,29.63,SSE,158,1.6,1.6,86,0.00,,,0.02,WUHU216HW,2013-05-23 10:09:00,
2013-05-23 03:29:00,46.8,42.8,29.63,SW,225,2.7,2.7,86,0.00,,,0.02,WUHU216HW,2013-05-23 10:29:00,
2013-05-23 03:34:00,46.8,42.8,29.63,SW,225,0.4,2.7,86,0.00,,,0.02,WUHU216HW,2013-05-23 10:34:00,
2013-05-23 03:39:00,46.8,42.8,29.63,SW,225,0.4,1.1,86,0.00,,,0.02,WUHU216HW,2013-05-23 10:39:00,
2013-05-23 03:59:00,46.8,42.8,29.63,SSW,203,1.3,1.3,86,0.00,,,0.02,WUHU216HW,2013-05-23 10:59:00,
2013-05-23 04:04:00,46.8,42.8,29.63,South,180,1.8,1.8,86,0.00,,,0.02,WUHU216HW,2013-05-23 11:04:00,
2013-05-23 04:09:00,46.8,42.8,29.63,South,180,1.8,1.8,86,0.00,,,0.02,WUHU216HW,2013-05-23 11:09:00,
2013-05-23 04:29:00,46.6,42.7,29.63,SSE,158,1.1,1.1,86,0.00,,,0.02,WUHU216HW,2013-05-23 11:29:00,
2013-05-23 04:34:00,46.6,42.7,29.63,ESE,113,0.7,1.1,86,0.00,,,0.02,WUHU216HW,2013-05-23 11:34:00,
2013-05-23 04:40:00,46.6,42.7,29.63,ESE,113,0.7,0.7,86,0.00,,,0.02,WUHU216HW,2013-05-23 11:40:00,
2013-05-23 04:59:00,46.8,42.6,29.63,SE,135,2.2,2.2,85,0.00,,,0.02,WUHU216HW,2013-05-23 11:59:00,
2013-05-23 05:04:00,46.8,42.6,29.63,ESE,113,1.1,2.2,85,0.00,,,0.02,WUHU216HW,2013-05-23 12:04:00,
2013-05-23 05:09:00,46.8,42.6,29.63,ESE,113,1.1,2.2,85,0.00,,,0.02,WUHU216HW,2013-05-23 12:09:00,
2013-05-23 05:29:00,46.6,42.4,29.63,ESE,113,0.2,0.2,85,0.00,,,0.02,WUHU216HW,2013-05-23 12:29:00,
2013-05-23 05:34:00,46.6,42.4,29.63,ESE,113,0.2,0.2,85,0.00,,,0.02,WUHU216HW,2013-05-23 12:34:00,
2013-05-23 05:39:00,46.6,42.4,29.63,ESE,113,0.2,0.2,85,0.00,,,0.02,WUHU216HW,2013-05-23 12:39:00,
2013-05-23 05:59:00,46.6,42.4,29.63,SE,135,2.7,2.7,85,0.00,,,0.02,WUHU216HW,2013-05-23 12:59:00,
2013-05-23 06:04:00,46.8,42.6,29.63,West,270,2.9,2.9,85,0.00,,,0.02,WUHU216HW,2013-05-23 13:04:00,
2013-05-23 06:09:00,46.8,42.6,29.63,West,270,2.9,2.9,85,0.00,,,0.02,WUHU216HW,2013-05-23 13:09:00,
2013-05-23 06:29:00,47.0,42.8,29.64,WNW,293,2.0,2.0,85,0.00,,,0.02,WUHU216HW,2013-05-23 13:29:00,
2013-05-23 06:34:00,47.0,42.8,29.64,SW,225,3.6,3.6,85,0.00,,,0.02,WUHU216HW,2013-05-23 13:34:00,
2013-05-23 06:39:00,47.0,42.8,29.64,SW,225,3.6,3.6,85,0.00,,,0.02,WUHU216HW,2013-05-23 13:39:00,
2013-05-23 06:59:00,47.2,42.9,29.65,WSW,248,4.7,4.7,85,0.00,,,0.02,WUHU216HW,2013-05-23 13:59:00,
2013-05-23 07:04:00,47.2,42.9,29.65,SE,135,4.5,4.7,85,0.00,,,0.02,WUHU216HW,2013-05-23 14:04:00,
2013-05-23 07:09:00,47.2,42.9,29.65,SE,135,4.5,4.5,85,0.00,,,0.02,WUHU216HW,2013-05-23 14:09:00,
2013-05-23 07:30:00,47.5,43.2,29.65,North,0,0.9,0.9,85,0.00,,,0.02,WUHU216HW,2013-05-23 14:30:00,
2013-05-23 07:35:00,47.5,43.2,29.65,ENE,68,0.4,0.9,85,0.00,,,0.02,WUHU216HW,2013-05-23 14:35:00,
2013-05-23 07:40:00,47.5,43.2,29.65,ENE,68,0.4,0.4,85,0.00,,,0.02,WUHU216HW,2013-05-23 14:40:00,
2013-05-23 07:59:00,47.7,43.4,29.66,SE,135,1.1,1.1,85,0.00,,,0.02,WUHU216HW,2013-05-23 14:59:00,
2013-05-23 08:04:00,47.7,43.4,29.66,SE,135,1.1,1.1,85,0.00,,,0.02,WUHU216HW,2013-05-23 15:04:00,
2013-05-23 08:09:00,47.7,43.4,29.66,SE,135,1.1,1.1,85,0.00,,,0.02,WUHU216HW,2013-05-23 15:09:00,
2013-05-23 08:29:00,48.6,44.3,29.66,SSE,158,4.7,4.7,85,0.01,,,0.02,WUHU216HW,2013-05-23 15:29:00,
2013-05-23 08:35:00,48.6,44.3,29.66,SSW,203,3.6,4.7,85,0.01,,,0.02,WUHU216HW,2013-05-23 15:35:00,
2013-05-23 08:40:00,48.6,44.3,29.66,SSW,203,3.6,3.6,85,0.01,,,0.02,WUHU216HW,2013-05-23 15:40:00,
2013-05-23 08:59:00,49.9,45.5,29.66,WSW,248,2.0,2.0,85,0.01,,,0.02,WUHU216HW,2013-05-23 15:59:00,
2013-05-23 09:04:00,49.9,45.5,29.66,West,270,2.2,2.2,85,0.01,,,0.02,WUHU216HW,2013-05-23 16:04:00,
2013-05-23 09:09:00,49.9,45.5,29.66,West,270,2.2,2.2,85,0.01,,,0.02,WUHU216HW,2013-05-23 16:09:00,
2013-05-23 09:29:00,50.2,45.6,29.66,NNW,338,0.7,0.7,84,0.00,,,0.02,WUHU216HW,2013-05-23 16:29:00,
2013-05-23 09:34:00,50.4,45.7,29.66,SSW,203,1.1,1.1,84,0.00,,,0.02,WUHU216HW,2013-05-23 16:34:00,
2013-05-23 09:39:00,50.4,45.7,29.66,SSW,203,1.1,1.1,84,0.00,,,0.02,WUHU216HW,2013-05-23 16:39:00,
2013-05-23 09:59:00,52.4,47.1,29.66,SSE,158,0.9,0.9,82,0.00,,,0.02,WUHU216HW,2013-05-23 16:59:00,
2013-05-23 10:04:00,52.6,47.3,29.66,SE,135,3.1,3.1,82,0.00,,,0.02,WUHU216HW,2013-05-23 17:04:00,
2013-05-23 10:09:00,52.6,47.3,29.66,SE,135,3.1,3.1,82,0.00,,,0.02,WUHU216HW,2013-05-23 17:09:00,
2013-05-23 10:29:00,52.4,46.1,29.65,SW,225,1.8,1.8,79,0.00,,,0.02,WUHU216HW,2013-05-23 17:29:00,
2013-05-23 10:34:00,52.4,46.1,29.65,SW,225,1.8,1.8,79,0.00,,,0.02,WUHU216HW,2013-05-23 17:34:00,
2013-05-23 10:40:00,52.4,46.1,29.65,SW,225,1.8,1.8,79,0.00,,,0.02,WUHU216HW,2013-05-23 17:40:00,
2013-05-23 10:59:00,53.6,47.0,29.65,SW,225,1.8,1.8,78,0.00,,,0.02,WUHU216HW,2013-05-23 17:59:00,
2013-05-23 11:04:00,53.6,47.0,29.65,SSE,158,2.9,2.9,78,0.00,,,0.02,WUHU216HW,2013-05-23 18:04:00,
2013-05-23 11:09:00,53.6,47.0,29.65,SSE,158,2.9,2.9,78,0.00,,,0.02,WUHU216HW,2013-05-23 18:09:00,
2013-05-23 11:29:00,54.5,47.1,29.66,West,270,5.1,5.1,76,0.00,,,0.02,WUHU216HW,2013-05-23 18:29:00,
2013-05-23 11:34:00,54.5,47.1,29.66,NNW,338,1.8,5.1,76,0.00,,,0.02,WUHU216HW,2013-05-23 18:34:00,
2013-05-23 11:39:00,54.5,47.1,29.66,NNW,338,1.8,5.1,76,0.00,,,0.02,WUHU216HW,2013-05-23 18:39:00,
2013-05-23 11:59:00,55.6,47.8,29.65,SSE,158,0.9,0.9,75,0.00,,,0.02,WUHU216HW,2013-05-23 18:59:00,
2013-05-23 12:04:00,55.6,47.8,29.65,SSE,158,1.6,1.6,75,0.00,,,0.02,WUHU216HW,2013-05-23 19:04:00,
2013-05-23 12:09:00,55.6,47.8,29.65,SSE,158,1.6,1.6,75,0.00,,,0.02,WUHU216HW,2013-05-23 19:09:00,
2013-05-23 12:29:00,57.8,47.7,29.65,South,180,2.7,2.7,69,0.00,,,0.02,WUHU216HW,2013-05-23 19:29:00,
2013-05-23 12:34:00,57.8,47.7,29.65,NW,315,2.5,2.7,69,0.00,,,0.02,WUHU216HW,2013-05-23 19:34:00,
2013-05-23 12:39:00,57.8,47.7,29.65,NW,315,2.5,2.7,69,0.00,,,0.02,WUHU216HW,2013-05-23 19:39:00,
2013-05-23 12:59:00,57.2,47.9,29.65,SSE,158,1.8,1.8,71,0.00,,,0.02,WUHU216HW,2013-05-23 19:59:00,
2013-05-23 13:04:00,57.2,47.9,29.65,East,90,2.2,2.2,71,0.00,,,0.02,WUHU216HW,2013-05-23 20:04:00,
2013-05-23 13:09:00,57.2,47.9,29.65,East,90,2.2,2.2,71,0.00,,,0.02,WUHU216HW,2013-05-23 20:09:00,
2013-05-23 13:29:00,58.0,47.9,29.65,SSE,158,3.4,3.4,69,0.00,,,0.02,WUHU216HW,2013-05-23 20:29:00,
2013-05-23 13:34:00,58.0,47.9,29.65,SSE,158,3.4,3.4,69,0.00,,,0.02,WUHU216HW,2013-05-23 20:34:00,
2013-05-23 13:39:00,58.0,47.9,29.65,SSE,158,3.4,3.4,69,0.00,,,0.02,WUHU216HW,2013-05-23 20:39:00,
2013-05-23 13:59:00,59.6,51.3,29.64,SSE,158,0.4,0.4,74,0.01,,,0.02,WUHU216HW,2013-05-23 20:59:00,
2013-05-23 14:04:00,59.6,51.3,29.64,SSE,158,0.0,0.4,74,0.01,,,0.04,WUHU216HW,2013-05-23 21:04:00,
2013-05-23 14:09:00,59.6,51.3,29.64,SSE,158,0.0,0.0,74,0.01,,,0.04,WUHU216HW,2013-05-23 21:09:00,
2013-05-23 14:29:00,57.2,48.6,29.66,East,90,2.9,2.9,73,0.02,,,0.04,WUHU216HW,2013-05-23 21:29:00,
2013-05-23 14:34:00,57.2,48.6,29.66,WSW,248,2.5,2.9,73,0.03,,,0.05,WUHU216HW,2013-05-23 21:34:00,
2013-05-23 14:39:00,57.2,48.6,29.66,WSW,248,2.5,2.5,73,0.03,,,0.05,WUHU216HW,2013-05-23 21:39:00,
2013-05-23 14:59:00,56.9,50.4,29.65,SE,135,0.9,0.9,79,0.05,,,0.05,WUHU216HW,2013-05-23 21:59:00,
2013-05-23 15:04:00,56.9,50.4,29.65,SE,135,1.1,1.1,79,0.05,,,0.09,WUHU216HW,2013-05-23 22:04:00,
2013-05-23 15:09:00,56.9,50.4,29.65,SE,135,1.1,1.1,79,0.05,,,0.09,WUHU216HW,2013-05-23 22:09:00,
2013-05-23 15:29:00,54.2,47.2,29.65,SE,135,3.1,3.1,77,0.07,,,0.09,WUHU216HW,2013-05-23 22:29:00,
2013-05-23 15:34:00,54.0,47.0,29.65,SSE,158,0.9,3.1,77,0.07,,,0.13,WUHU216HW,2013-05-23 22:34:00,
2013-05-23 15:39:00,54.0,47.0,29.65,SSE,158,0.9,1.8,77,0.07,,,0.13,WUHU216HW,2013-05-23 22:39:00,
2013-05-23 15:59:00,54.4,48.3,29.65,SE,135,2.5,2.5,80,0.04,,,0.13,WUHU216HW,2013-05-23 22:59:00,
2013-05-23 16:04:00,54.4,48.3,29.65,SE,135,1.1,2.5,80,0.04,,,0.13,WUHU216HW,2013-05-23 23:04:00,
2013-05-23 16:09:00,54.4,48.3,29.65,SE,135,1.1,1.1,80,0.04,,,0.13,WUHU216HW,2013-05-23 23:09:00,
2013-05-23 16:29:00,55.1,49.0,29.65,South,180,1.3,1.3,80,0.01,,,0.13,WUHU216HW,2013-05-23 23:29:00,
2013-05-23 16:34:00,54.9,48.9,29.65,South,180,1.3,1.3,80,0.01,,,0.13,WUHU216HW,2013-05-23 23:34:00,
2013-05-23 16:39:00,54.9,48.9,29.65,South,180,1.3,1.3,80,0.01,,,0.13,WUHU216HW,2013-05-23 23:39:00,
2013-05-23 16:59:00,55.6,49.9,29.64,SSE,158,0.7,0.7,81,0.01,,,0.13,WUHU216HW,2013-05-23 23:59:00,
2013-05-23 17:04:00,55.6,49.9,29.64,SE,135,1.1,1.1,81,0.01,,,0.13,WUHU216HW,2013-05-24 00:04:00,
2013-05-23 17:09:00,55.6,49.9,29.64,SE,135,1.1,1.1,81,0.01,,,0.13,WUHU216HW,2013-05-24 00:09:00,
2013-05-23 17:29:00,54.4,49.0,29.64,South,180,0.4,0.4,82,0.02,,,0.13,WUHU216HW,2013-05-24 00:29:00,
2013-05-23 17:34:00,54.5,49.1,29.64,WSW,248,0.4,0.4,82,0.02,,,0.16,WUHU216HW,2013-05-24 00:34:00,
2013-05-23 17:39:00,54.5,49.1,29.64,WSW,248,0.4,0.4,82,0.02,,,0.16,WUHU216HW,2013-05-24 00:39:00,
2013-05-23 17:59:00,55.1,49.7,29.64,WSW,248,0.7,0.7,82,0.04,,,0.16,WUHU216HW,2013-05-24 00:59:00,
2013-05-23 18:04:00,55.1,49.7,29.64,South,180,0.7,0.7,82,0.04,,,0.18,WUHU216HW,2013-05-24 01:04:00,
2013-05-23 18:09:00,55.1,49.7,29.64,South,180,0.7,0.7,82,0.04,,,0.18,WUHU216HW,2013-05-24 01:09:00,
2013-05-23 18:29:00,53.8,48.5,29.64,SSE,158,0.7,0.7,82,0.06,,,0.18,WUHU216HW,2013-05-24 01:29:00,
2013-05-23 18:34:00,53.8,48.5,29.64,SSE,158,0.9,0.9,82,0.06,,,0.22,WUHU216HW,2013-05-24 01:34:00,
2013-05-23 18:39:00,53.8,48.5,29.64,SSE,158,0.9,0.9,82,0.06,,,0.22,WUHU216HW,2013-05-24 01:39:00,
2013-05-23 18:59:00,52.4,47.7,29.63,SE,135,0.7,0.7,84,0.07,,,0.22,WUHU216HW,2013-05-24 01:59:00,
2013-05-23 19:04:00,52.4,47.7,29.63,SE,135,0.7,0.7,84,0.07,,,0.26,WUHU216HW,2013-05-24 02:04:00,
2013-05-23 19:09:00,52.4,47.7,29.63,SE,135,0.7,0.7,84,0.07,,,0.26,WUHU216HW,2013-05-24 02:09:00,
2013-05-23 19:29:00,51.7,47.3,29.63,ESE,113,1.3,1.3,85,0.08,,,0.26,WUHU216HW,2013-05-24 02:29:00,
2013-05-23 19:34:00,51.5,47.1,29.63,ESE,113,1.3,1.3,85,0.08,,,0.30,WUHU216HW,2013-05-24 02:34:00,
2013-05-23 19:39:00,51.5,47.1,29.63,ESE,113,1.3,1.3,85,0.08,,,0.30,WUHU216HW,2013-05-24 02:39:00,
2013-05-23 19:59:00,51.3,47.2,29.63,ESE,113,0.4,0.4,86,0.05,,,0.30,WUHU216HW,2013-05-24 02:59:00,
2013-05-23 20:04:00,51.3,47.2,29.63,ESE,113,0.9,0.9,86,0.05,,,0.31,WUHU216HW,2013-05-24 03:04:00,
2013-05-23 20:09:00,51.3,47.2,29.63,ESE,113,0.9,0.9,86,0.05,,,0.31,WUHU216HW,2013-05-24 03:09:00,
2013-05-23 20:29:00,51.1,47.0,29.63,SE,135,2.9,2.9,86,0.01,,,0.31,WUHU216HW,2013-05-24 03:29:00,
2013-05-23 20:34:00,51.1,47.0,29.63,South,180,2.5,2.9,86,0.01,,,0.31,WUHU216HW,2013-05-24 03:34:00,
2013-05-23 20:39:00,51.1,47.0,29.63,South,180,2.5,2.5,86,0.01,,,0.31,WUHU216HW,2013-05-24 03:39:00,
2013-05-23 20:59:00,50.9,47.2,29.63,SSE,158,1.6,1.6,87,0.00,,,0.31,WUHU216HW,2013-05-24 03:59:00,
2013-05-23 21:01:00,50.9,47.2,29.63,SE,140,1.5,1.8,87,0.00,,,0.31,WUHU216HW,2013-05-24 04:01:00,
2013-05-23 21:06:00,50.9,47.2,29.63,ENE,68,1.1,1.8,87,0.00,,,0.31,WUHU216HW,2013-05-24 04:06:00,
2013-05-23 21:29:00,50.9,47.2,29.64,NE,45,0.0,0.0,87,0.00,,,0.31,WUHU216HW,2013-05-24 04:29:00,
2013-05-23 21:34:00,50.9,47.2,29.64,NE,45,0.4,0.4,87,0.01,,,0.31,WUHU216HW,2013-05-24 04:34:00,
2013-05-23 21:39:00,50.9,47.2,29.64,NE,45,0.4,0.4,87,0.01,,,0.31,WUHU216HW,2013-05-24 04:39:00,
2013-05-23 21:59:00,50.8,47.0,29.64,South,180,0.9,0.9,87,0.02,,,0.32,WUHU216HW,2013-05-24 04:59:00,
2013-05-23 22:04:00,50.6,46.8,29.64,SSW,203,1.1,1.1,87,0.02,,,0.33,WUHU216HW,2013-05-24 05:04:00,
2013-05-23 22:09:00,50.6,46.8,29.64,SSW,203,1.1,1.1,87,0.02,,,0.33,WUHU216HW,2013-05-24 05:09:00,
2013-05-23 22:29:00,50.2,46.5,29.65,SE,135,1.3,1.3,87,0.01,,,0.33,WUHU216HW,2013-05-24 05:29:00,
2013-05-23 22:34:00,50.2,46.5,29.65,ESE,113,1.1,1.3,87,0.01,,,0.33,WUHU216HW,2013-05-24 05:34:00,
2013-05-23 22:39:00,50.2,46.5,29.65,ESE,113,1.1,1.1,87,0.01,,,0.33,WUHU216HW,2013-05-24 05:39:00,
2013-05-23 22:59:00,50.0,46.3,29.64,West,270,1.6,1.6,87,0.00,,,0.33,WUHU216HW,2013-05-24 05:59:00,
2013-05-23 23:04:00,50.2,46.5,29.64,South,180,1.6,1.6,87,0.00,,,0.33,WUHU216HW,2013-05-24 06:04:00,
2013-05-23 23:09:00,50.2,46.5,29.64,South,180,1.6,1.6,87,0.00,,,0.33,WUHU216HW,2013-05-24 06:09:00,
2013-05-23 23:29:00,50.0,46.3,29.64,SE,135,0.9,0.9,87,0.01,,,0.33,WUHU216HW,2013-05-24 06:29:00,
2013-05-23 23:34:00,50.0,46.3,29.64,SE,135,0.2,0.9,87,0.01,,,0.34,WUHU216HW,2013-05-24 06:34:00,
2013-05-23 23:39:00,50.0,46.3,29.64,SE,135,0.2,0.9,87,0.01,,,0.34,WUHU216HW,2013-05-24 06:39:00,
2013-05-23 23:59:00,49.9,46.4,29.63,South,180,1.8,1.8,88,0.03,,,0.00,WUHU216HW,2013-05-24 06:59:00,